Weather History for LHUD - July, 2013

Change the Weather History Date:

Friday, July 12, 2013

  Actual Average (LRAR) Record (LRAR)
Temperature  
Mean Temperature 66 °F -  
Max Temperature 77 °F 81 °F 93 °F (2002)
Min Temperature 54 °F 58 °F 51 °F (2007)
Growing Degree Days 16 (Base 50)    
Moisture  
Dew Point 53 °F    
Average Humidity 60    
Maximum Humidity 94    
Minimum Humidity 30    
Precipitation  
Precipitation 0.00 in 0.07 in - ()
Sea Level Pressure  
Sea Level Pressure 30.03 in    
Wind  
Wind Speed 8 mph ()    
Max Wind Speed 12 mph    
Max Gust Speed -    
Visibility 13.0 miles    
Events      
Averages and records for this station are not official NWS values.
T = Trace of Precipitation, MM = Missing Value Source: Averaged Metar Reports

Daily Weather History Graph

Daily Weather History Graph

Search for Another Location

Airport or City:

Trip Planner

Search our weather history database for the weather conditions in past years. The results will help you decide how hot, cold, wet, or windy it might be!

Date:

Astronomy

Jul. 12, 2013 Rise Set
Actual Time 4:59 AM CEST 8:30 PM CEST
Civil Twilight 4:22 AM CEST 9:07 PM CEST
Nautical Twilight 3:32 AM CEST 9:57 PM CEST
Astronomical Twilight 2:26 AM CEST 11:02 PM CEST
Moon 9:15 AM CEST (7/12) 10:13 PM CEST (7/12)
Length of Visible Light 16h 45m
Length of Day
15h 30m
Waxing Crescent, 15% of the Moon is Illuminated
Jul 12
Waxing Crescent
Jul 16
First Quarter
Jul 22
Full
Jul 29
Last Quarter
Aug 6
New

Hourly Weather History & Observations

Time (CEST) Temp. Dew Point Humidity Pressure Visibility Wind Dir Wind Speed Gust Speed Precip Events Conditions
12:45 AM 60.8 °F 51.8 °F 72% 29.98 in - WNW 6.9 mph - N/A   Clear
1:00 AM 61 °F 51 °F 61% 29.97 in 19 mi WNW 6.7 mph - -   Partly Cloudy
1:45 AM 60.8 °F 50.0 °F 68% 29.98 in - WNW 9.2 mph - N/A   Clear
2:00 AM 60 °F 50 °F 60% 29.98 in 19 mi WNW 8.9 mph - -   Partly Cloudy
2:45 AM 59.0 °F 50.0 °F 72% 29.98 in - WNW 8.1 mph - N/A   Clear
3:00 AM 59 °F 50 °F 64% 29.99 in 19 mi WNW 6.7 mph - -   Partly Cloudy
3:45 AM 57.2 °F 51.8 °F 82% 30.01 in - NW 5.8 mph - N/A   Clear
4:00 AM 56 °F 51 °F 79% 30.00 in 19 mi NW 6.7 mph - -   Partly Cloudy
4:45 AM 55.4 °F 51.8 °F 88% 30.01 in - West 4.6 mph - N/A   Clear
5:00 AM 56 °F 51 °F 79% 30.00 in 19 mi West 4.5 mph - -   Partly Cloudy
5:45 AM 55.4 °F 51.8 °F 88% 30.01 in - WNW 6.9 mph - N/A   Clear
6:00 AM 56 °F 52 °F 80% 30.01 in 19 mi WNW 6.7 mph - -   Partly Cloudy
6:15 AM 57.2 °F 51.8 °F 82% 30.01 in - WNW 9.2 mph - N/A   Clear
6:45 AM 59.0 °F 51.8 °F 77% 30.01 in - WNW 8.1 mph - N/A   Clear
7:00 AM 59 °F 53 °F 73% 30.02 in 19 mi WNW 8.9 mph - -   Partly Cloudy
7:15 AM 60.8 °F 53.6 °F 77% 30.04 in - NW 8.1 mph - N/A   Clear
7:45 AM 62.6 °F 53.6 °F 72% 30.04 in - NW 9.2 mph - N/A   Clear
8:00 AM 62 °F 54 °F 68% 30.02 in 25 mi NW 8.9 mph - -   Partly Cloudy
8:15 AM 64.4 °F 55.4 °F 73% 30.04 in - WNW 8.1 mph - N/A   Clear
8:45 AM 66.2 °F 57.2 °F 73% 30.04 in - NW 9.2 mph - N/A   Clear
9:00 AM 66 °F 56 °F 63% 30.04 in 31 mi NW 8.9 mph - -   Partly Cloudy
9:15 AM 68.0 °F 55.4 °F 64% 30.04 in - NW 6.9 mph - N/A   Clear
9:45 AM 69.8 °F 55.4 °F 60% 30.04 in - WNW 9.2 mph - N/A   Clear
10:00 AM 70 °F 55 °F 48% 30.04 in 31 mi WNW 8.9 mph - -   Partly Cloudy
10:15 AM 71.6 °F 55.4 °F 57% 30.04 in 6.2 mi WNW 9.2 mph - N/A   Partly Cloudy
10:45 AM 71.6 °F 55.4 °F 57% 30.04 in 6.2 mi NW 9.2 mph - N/A   Partly Cloudy
11:00 AM 72 °F 55 °F 44% 30.04 in 37 mi NW 8.9 mph - -   Partly Cloudy
11:15 AM 73.4 °F 55.4 °F 53% 30.06 in 6.2 mi West 9.2 mph - N/A   Partly Cloudy
11:45 AM 73.4 °F 55.4 °F 53% 30.06 in 6.2 mi WNW 11.5 mph - N/A   Partly Cloudy
12:00 PM 73 °F 54 °F 42% 30.04 in 44 mi WNW 11.2 mph - -   Partly Cloudy
12:15 PM 75.2 °F 55.4 °F 50% 30.04 in 6.2 mi NW 10.4 mph - N/A   Partly Cloudy
12:45 PM 75.2 °F 55.4 °F 50% 30.04 in 6.2 mi WNW 9.2 mph - N/A   Partly Cloudy
1:00 PM 76 °F 54 °F 37% 30.03 in 47 mi WNW 8.9 mph - -   Partly Cloudy
1:15 PM 75.2 °F 53.6 °F 47% 30.04 in 6.2 mi NW 10.4 mph - N/A   Scattered Clouds
1:45 PM 75.2 °F 51.8 °F 44% 30.04 in - WNW 11.5 mph - N/A   Clear
2:00 PM 76 °F 51 °F 31% 30.03 in 47 mi WNW 11.2 mph - -   Partly Cloudy
2:15 PM 77.0 °F 57.2 °F 50% 30.04 in - West 9.2 mph - N/A   Clear
2:45 PM 77.0 °F 53.6 °F 44% 30.04 in - WNW 11.5 mph - N/A   Clear
3:00 PM 77 °F 54 °F 34% 30.02 in 47 mi WNW 11.2 mph - -   Partly Cloudy
3:15 PM 77.0 °F 55.4 °F 47% 30.04 in - WNW 10.4 mph - N/A   Clear
3:45 PM 75.2 °F 51.8 °F 44% 30.04 in - WNW 11.5 mph - N/A   Clear
4:00 PM 75 °F 51 °F 32% 30.02 in 47 mi WNW 11.2 mph - -   Partly Cloudy
4:15 PM 75.2 °F 53.6 °F 47% 30.04 in - NW 10.4 mph - N/A   Clear
4:45 PM 77.0 °F 51.8 °F 41% 30.04 in - WNW 9.2 mph - N/A   Clear
5:00 PM 77 °F 53 °F 32% 30.02 in 44 mi WNW 8.9 mph - -   Partly Cloudy
5:15 PM 77.0 °F 51.8 °F 41% 30.01 in - WNW 10.4 mph - N/A   Clear
5:45 PM 75.2 °F 50.0 °F 41% 30.01 in - WNW 11.5 mph - N/A   Clear
6:00 PM 76 °F 50 °F 30% 30.01 in 37 mi WNW 11.2 mph - -   Partly Cloudy
6:15 PM 77.0 °F 50.0 °F 39% 30.04 in - West 9.2 mph - N/A   Clear
6:45 PM 75.2 °F 51.8 °F 44% 30.04 in - WNW 9.2 mph - N/A   Clear
7:00 PM 75 °F 51 °F 32% 30.01 in 31 mi WNW 8.9 mph - -   Partly Cloudy
7:15 PM 73.4 °F 48.2 °F 41% 30.04 in - WNW 9.2 mph - N/A   Clear
7:45 PM 71.6 °F 50.0 °F 46% 30.04 in - WNW 6.9 mph - N/A   Clear
8:00 PM 72 °F 50 °F 35% 30.03 in 31 mi WNW 6.7 mph - -   Partly Cloudy
8:15 PM 68.0 °F 57.2 °F 68% 30.04 in - NW 4.6 mph - N/A   Clear
8:45 PM 64.4 °F 57.2 °F 77% 30.04 in - WNW 4.6 mph - N/A   Clear
9:00 PM 64 °F 57 °F 73% 30.04 in 28 mi WNW 4.5 mph - -   Partly Cloudy
9:15 PM 62.6 °F 57.2 °F 82% 30.06 in - WNW 4.6 mph - N/A   Clear
9:45 PM 60.8 °F 57.2 °F 88% 30.06 in - West 5.8 mph - N/A   Clear
10:00 PM 60 °F 56 °F 83% 30.05 in 25 mi West 4.5 mph - -   Partly Cloudy
10:45 PM 59.0 °F 55.4 °F 88% 30.06 in - West 3.5 mph - N/A   Clear
11:00 PM 58 °F 56 °F 90% 30.06 in 19 mi West 4.5 mph - -   Partly Cloudy
11:45 PM 57.2 °F 55.4 °F 94% 30.06 in - West 4.6 mph - N/A   Clear